DW8722 Weather Reports


Display with metric or nautical units.
time (UTC)temp
F
wind
direction
speed
MPH
gust
MPH
rain 1hr
in
rain 24hr
in
rain mn
in
humidity
%
barometer
mb
20190422145455 66 169 0.0 8.0 0.00 0.00 0.00 83 1018.0
20190422144938 66 146 0.0 4.0 0.00 0.00 0.00 83 1017.9
20190422144431 66 144 0.0 7.0 0.00 0.00 0.00 84 1017.9
20190422143938 65 163 0.0 6.0 0.00 0.00 0.00 84 1017.9
20190422143446 65 168 0.0 5.0 0.00 0.00 0.00 85 1017.7
20190422142932 65 135 0.0 8.0 0.00 0.00 0.00 85 1017.7
20190422142441 65 185 0.0 8.0 0.00 0.00 0.00 85 1017.6
20190422141939 65 176 0.0 8.0 0.00 0.00 0.00 86 1017.7
20190422141504 64 119 1.0 9.0 0.00 0.00 0.00 86 1017.7
20190422141429 65 123 0.0 8.0 0.00 0.00 0.00 86 1017.6
20190422140938 64 215 0.0 0.0 0.00 0.00 0.00 87 1017.6
20190422140423 64 161 0.0 9.0 0.00 0.00 0.00 87 1017.7
20190422135922 64 169 0.0 9.0 0.00 0.00 0.00 88 1017.7
20190422135417 63 186 0.0 3.0 0.00 0.00 0.00 88 1017.6
20190422134900 63 217 1.0 7.0 0.00 0.00 0.00 88 1017.6
20190422134508 63 233 0.0 7.0 0.00 0.00 0.00 89 1017.7
20190422134410 63 154 0.0 7.0 0.00 0.00 0.00 89 1017.6
20190422133850 63 147 0.0 5.0 0.00 0.00 0.00 89 1017.3
20190422133337 63 107 0.0 7.0 0.00 0.00 0.00 90 1017.3
20190422133020 62 148 0.0 8.0 0.00 0.00 0.00 90 1017.4
20190422132847 63 202 0.0 7.0 0.00 0.00 0.00 90 1017.3
20190422132338 62 160 0.0 0.0 0.00 0.00 0.00 90 1017.4
20190422131839 62 115 0.0 2.0 0.00 0.00 0.00 90 1017.4
20190422131346 62 177 0.0 1.0 0.00 0.00 0.00 91 1017.3
20190422130846 62 168 0.0 6.0 0.00 0.00 0.00 91 1017.2
20190422130336 62 169 0.0 7.0 0.00 0.00 0.00 91 1017.1
20190422130002 61 148 0.0 8.0 0.00 0.00 0.00 91 1017.1
20190422125820 61 188 0.0 7.0 0.00 0.00 0.00 91 1017.1
20190422125319 61 194 0.0 4.0 0.00 0.00 0.00 91 1016.9
20190422124816 61 163 0.0 0.0 0.00 0.00 0.00 91 1016.9
20190422124309 61 178 0.0 0.0 0.00 0.00 0.00 91 1016.8
20190422123816 61 161 0.0 0.0 0.00 0.00 0.00 91 1016.9
20190422123304 61 150 0.0 0.0 0.00 0.00 0.00 91 1016.8
20190422122810 61 138 0.0 0.0 0.00 0.00 0.00 91 1016.6
20190422122307 61 145 0.0 5.0 0.00 0.00 0.00 91 1016.5
20190422121811 61 134 0.0 2.0 0.00 0.00 0.00 91 1016.3
20190422121506 61 126 0.0 7.0 0.00 0.00 0.00 91 1016.2
20190422121305 61 157 1.0 9.0 0.00 0.00 0.00 91 1016.1
20190422120805 61 179 1.0 8.0 0.00 0.00 0.00 91 1016.0
20190422120309 61 131 0.0 8.0 0.00 0.00 0.00 90 1015.9
20190422115807 61 141 0.0 5.0 0.00 0.00 0.00 90 1015.9
20190422115312 61 184 0.0 2.0 0.00 0.00 0.00 90 1015.9
20190422114757 62 163 2.0 9.0 0.00 0.00 0.00 90 1015.8
20190422114514 61 176 2.0 9.0 0.00 0.00 0.00 90 1015.7
20190422114303 62 158 1.0 9.0 0.00 0.00 0.00 90 1015.6
20190422113812 62 130 1.0 9.0 0.00 0.00 0.00 89 1015.5
20190422113315 62 159 1.0 9.0 0.00 0.00 0.00 89 1015.4
20190422113010 61 159 3.0 10.0 0.00 0.00 0.00 89 1015.4
20190422112818 62 173 0.0 6.0 0.00 0.00 0.00 89 1015.4
20190422112326 62 171 1.0 13.0 0.00 0.00 0.00 89 1015.3
20190422111817 62 190 2.0 13.0 0.00 0.00 0.00 89 1015.3
20190422111322 62 169 2.0 13.0 0.00 0.00 0.00 89 1015.3
20190422110803 62 159 2.0 13.0 0.00 0.00 0.00 89 1015.3
20190422110255 62 106 2.0 9.0 0.00 0.00 0.00 89 1015.3
20190422110026 61 136 2.0 10.0 0.00 0.00 0.00 89 1015.3
20190422105738 62 188 2.0 9.0 0.00 0.00 0.00 88 1015.2
20190422105238 62 133 3.0 9.0 0.00 0.00 0.00 88 1015.1
20190422104736 62 127 2.0 9.0 0.00 0.00 0.00 88 1015.1
20190422104229 62 159 2.0 9.0 0.00 0.00 0.00 88 1015.2
20190422103725 62 115 2.0 8.0 0.00 0.00 0.00 89 1015.1
20190422103218 62 206 2.0 9.0 0.00 0.00 0.00 89 1015.0
20190422102724 62 142 3.0 9.0 0.00 0.00 0.00 89 1015.0
20190422102226 62 163 3.0 13.0 0.00 0.00 0.00 89 1014.9
20190422101715 62 138 2.0 13.0 0.00 0.00 0.00 89 1014.8
20190422101505 61 351 3.0 10.0 0.00 0.00 0.00 89 1014.9
20190422101219 62 186 2.0 13.0 0.00 0.00 0.00 89 1014.9
20190422100717 62 182 2.0 13.0 0.00 0.00 0.00 89 1014.9
20190422100225 62 209 2.0 10.0 0.00 0.00 0.00 89 1014.9
20190422095710 62 148 3.0 10.0 0.00 0.00 0.00 89 1014.9
20190422095214 62 107 3.0 10.0 0.00 0.00 0.00 89 1014.8
20190422094710 62 143 2.0 8.0 0.00 0.00 0.00 89 1014.8
20190422094510 61 148 2.0 9.0 0.00 0.00 0.00 89 1014.8
20190422094155 62 140 2.0 9.0 0.00 0.00 0.00 89 1014.8
20190422093658 62 154 2.0 9.0 0.00 0.00 0.00 89 1014.9
20190422093143 62 188 3.0 11.0 0.00 0.00 0.00 89 1014.9
20190422093008 61 92 2.0 7.0 0.00 0.00 0.00 89 1015.0
20190422092636 62 99 3.0 11.0 0.00 0.00 0.00 88 1014.9
20190422092116 62 197 4.0 11.0 0.00 0.00 0.00 88 1014.8
20190422091109 62 143 2.0 12.0 0.00 0.00 0.00 88 1014.8
20190422090556 62 126 2.0 12.0 0.00 0.00 0.00 88 1015.0
20190422090052 62 126 3.0 12.0 0.00 0.00 0.00 88 1014.9
20190422090007 62 117 3.0 14.0 0.00 0.00 0.00 88 1015.0
20190422085559 62 221 3.0 12.0 0.00 0.00 0.00 88 1014.9
20190422085055 62 163 2.0 9.0 0.00 0.00 0.00 88 1014.8
20190422084551 62 171 1.0 9.0 0.00 0.00 0.00 88 1014.7
20190422084038 62 161 1.0 9.0 0.00 0.00 0.00 87 1014.7
20190422083541 62 169 2.0 7.0 0.00 0.00 0.00 87 1014.6
20190422083047 62 179 1.0 7.0 0.00 0.00 0.00 87 1014.6
20190422082546 62 234 0.0 6.0 0.00 0.00 0.00 86 1014.7
20190422082033 62 175 1.0 8.0 0.00 0.00 0.00 86 1014.6
20190422081528 63 108 2.0 6.0 0.00 0.00 0.00 85 1014.5
20190422081503 62 121 0.0 9.0 0.00 0.00 0.00 85 1014.6
20190422081009 63 130 3.0 13.0 0.00 0.00 0.00 85 1014.4
20190422080512 63 129 2.0 13.0 0.00 0.00 0.00 84 1014.4
20190422075944 63 168 2.0 13.0 0.00 0.00 0.00 84 1014.4
20190422075451 63 132 3.0 10.0 0.00 0.00 0.00 83 1014.4
20190422074932 63 217 2.0 11.0 0.00 0.00 0.00 83 1014.5
20190422074505 63 170 3.0 9.0 0.00 0.00 0.00 82 1014.5
20190422074441 63 159 2.0 11.0 0.00 0.00 0.00 82 1014.5
20190422073941 63 107 3.0 11.0 0.00 0.00 0.00 82 1014.5
20190422073429 64 137 3.0 11.0 0.00 0.00 0.00 82 1014.6
20190422072920 64 132 3.0 13.0 0.00 0.00 0.00 81 1014.6
20190422072427 64 128 3.0 13.0 0.00 0.00 0.00 81 1014.7
20190422071928 64 153 3.0 13.0 0.00 0.00 0.00 80 1014.8
20190422071438 64 147 3.0 13.0 0.00 0.00 0.00 80 1014.9
20190422070948 64 146 3.0 13.0 0.00 0.00 0.00 80 1014.9
20190422070443 64 173 3.0 13.0 0.00 0.00 0.00 79 1014.7
20190422070006 64 123 2.0 14.0 0.00 0.00 0.00 79 1014.8
20190422065934 64 135 3.0 13.0 0.00 0.00 0.00 79 1014.8
20190422065417 64 121 3.0 13.0 0.00 0.00 0.00 79 1014.8
20190422064912 64 166 3.0 13.0 0.00 0.00 0.00 79 1014.8
20190422064406 64 163 2.0 13.0 0.00 0.00 0.00 79 1014.8
20190422063858 64 160 1.0 9.0 0.00 0.00 0.00 79 1015.0
20190422063352 65 168 1.0 11.0 0.00 0.00 0.00 79 1014.9
20190422062917 65 137 2.0 11.0 0.00 0.00 0.00 79 1015.0
20190422062348 65 191 3.0 11.0 0.00 0.00 0.00 79 1015.0
20190422061851 65 153 3.0 11.0 0.00 0.00 0.00 78 1015.1
20190422061505 64 184 3.0 11.0 0.00 0.00 0.00 78 1015.1
20190422061352 65 166 2.0 10.0 0.00 0.00 0.00 78 1015.1
20190422060845 65 153 2.0 9.0 0.00 0.00 0.00 78 1015.1
20190422060330 65 161 1.0 9.0 0.00 0.00 0.00 78 1015.0
20190422055817 65 190 1.0 8.0 0.00 0.00 0.00 78 1015.0
20190422055323 65 183 1.0 8.0 0.00 0.00 0.00 78 1015.0
20190422054824 65 184 1.0 9.0 0.00 0.00 0.00 77 1015.0
20190422054502 64 146 2.0 8.0 0.00 0.00 0.00 77 1015.0
20190422054329 65 189 2.0 9.0 0.00 0.00 0.00 77 1014.9
20190422053819 65 148 3.0 9.0 0.00 0.00 0.00 76 1014.9
20190422053306 65 152 2.0 9.0 0.00 0.00 0.00 76 1014.8
20190422053005 65 163 2.0 10.0 0.00 0.00 0.00 76 1014.8
20190422052801 65 182 1.0 9.0 0.00 0.00 0.00 76 1014.8
20190422052303 65 166 3.0 11.0 0.00 0.00 0.00 75 1014.9
20190422051752 65 148 2.0 11.0 0.00 0.00 0.00 75 1014.8
20190422051253 65 167 1.0 11.0 0.00 0.00 0.00 75 1014.6
20190422050754 65 155 1.0 11.0 0.00 0.00 0.00 75 1014.6
20190422050239 65 142 1.0 8.0 0.00 0.00 0.00 75 1014.6
20190422050004 65 169 0.0 9.0 0.00 0.00 0.00 75 1014.6
20190422045735 65 165 0.0 8.0 0.00 0.00 0.00 75 1014.5
20190422045231 65 146 0.0 3.0 0.00 0.00 0.00 74 1014.5
20190422044730 66 158 0.0 9.0 0.00 0.00 0.00 74 1014.6
20190422044238 66 155 0.0 7.0 0.00 0.00 0.00 74 1014.6
20190422043741 66 126 0.0 0.0 0.00 0.00 0.00 74 1014.6
20190422043243 66 198 0.0 3.0 0.00 0.00 0.00 73 1014.6
20190422042749 66 144 0.0 3.0 0.00 0.00 0.00 73 1014.6
20190422042255 66 180 0.0 0.0 0.00 0.00 0.00 72 1014.6
20190422041735 66 167 0.0 3.0 0.00 0.00 0.00 72 1014.5
20190422041504 66 164 0.0 9.0 0.00 0.00 0.00 71 1014.6
20190422041216 67 136 1.0 0.0 0.00 0.00 0.00 71 1014.5
20190422040701 67 174 1.0 6.0 0.00 0.00 0.00 71 1014.5
20190422040151 67 108 1.0 0.0 0.00 0.00 0.00 71 1014.4
20190422035649 67 171 1.0 8.0 0.00 0.00 0.00 70 1014.4
20190422035144 67 163 0.0 3.0 0.00 0.00 0.00 70 1014.4
20190422034637 67 151 0.0 5.0 0.00 0.00 0.00 70 1014.3
20190422034509 67 138 0.0 6.0 0.00 0.00 0.00 70 1014.4
20190422034131 67 182 0.0 5.0 0.00 0.00 0.00 70 1014.3
20190422033642 67 154 0.0 0.0 0.00 0.00 0.00 69 1014.3
20190422033140 67 171 0.0 3.0 0.00 0.00 0.00 69 1014.2
20190422033011 67 170 0.0 7.0 0.00 0.00 0.00 69 1014.3
20190422032651 67 188 0.0 0.0 0.00 0.00 0.00 69 1014.2
20190422032131 67 162 0.0 2.0 0.00 0.00 0.00 70 1014.2
20190422031632 67 123 0.0 0.0 0.00 0.00 0.00 70 1014.2
20190422031134 67 173 0.0 0.0 0.00 0.00 0.00 70 1014.2
20190422030627 67 164 0.0 0.0 0.00 0.00 0.00 70 1014.0
20190422030122 67 173 0.0 0.0 0.00 0.00 0.00 70 1014.0
20190422030006 66 173 0.0 0.0 0.00 0.00 0.00 70 1014.0
20190422025609 67 173 0.0 0.0 0.00 0.00 0.00 70 1013.9
20190422025059 67 177 0.0 0.0 0.00 0.00 0.00 69 1013.8
20190422024548 67 184 0.0 0.0 0.00 0.00 0.00 68 1013.8
20190422024034 68 184 0.0 0.0 0.00 0.00 0.00 68 1013.8
20190422023523 68 184 0.0 0.0 0.00 0.00 0.00 67 1013.7
20190422023034 68 140 0.0 0.0 0.00 0.00 0.00 66 1013.7
20190422022531 69 157 0.0 0.0 0.00 0.00 0.00 66 1013.5
20190422022013 69 187 0.0 1.0 0.00 0.00 0.00 65 1013.5
20190422021519 69 178 0.0 0.0 0.00 0.00 0.00 64 1013.4
20190422021507 69 178 0.0 2.0 0.00 0.00 0.00 64 1013.4
20190422021007 69 180 0.0 0.0 0.00 0.00 0.00 64 1013.3
20190422020452 70 153 0.0 0.0 0.00 0.00 0.00 63 1013.2
20190422015932 70 163 0.0 0.0 0.00 0.00 0.00 62 1013.2
20190422015439 70 163 0.0 0.0 0.00 0.00 0.00 62 1013.2
20190422014940 70 163 0.0 1.0 0.00 0.00 0.00 61 1013.2
20190422014510 70 167 0.0 1.0 0.00 0.00 0.00 61 1013.2
20190422014422 71 167 0.0 0.0 0.00 0.00 0.00 60 1013.1
20190422013903 71 165 0.0 0.0 0.00 0.00 0.00 60 1013.0
20190422013350 71 175 0.0 0.0 0.00 0.00 0.00 59 1013.0
20190422013005 71 176 0.0 3.0 0.00 0.00 0.00 59 1012.8
20190422012839 72 176 0.0 3.0 0.00 0.00 0.00 58 1012.8
20190422012329 72 135 0.0 3.0 0.00 0.00 0.00 57 1012.7
20190422011817 72 111 0.0 0.0 0.00 0.00 0.00 57 1012.6
20190422011307 72 173 0.0 0.0 0.00 0.00 0.00 57 1012.6
20190422010751 73 150 0.0 1.0 0.00 0.00 0.00 56 1012.7
20190422010251 73 164 0.0 9.0 0.00 0.00 0.00 55 1012.6
20190422010003 73 173 1.0 8.0 0.00 0.00 0.00 55 1012.5
20190422005737 73 159 0.0 9.0 0.00 0.00 0.00 55 1012.4
20190422005237 74 161 0.0 9.0 0.00 0.00 0.00 54 1012.3
20190422004745 74 149 1.0 9.0 0.00 0.00 0.00 54 1012.3
20190422004228 74 206 0.0 6.0 0.00 0.00 0.00 53 1012.3
20190422003717 75 140 0.0 9.0 0.00 0.00 0.00 53 1012.2
20190422003218 75 186 0.0 7.0 0.00 0.00 0.00 53 1012.3
20190422002708 75 175 0.0 7.0 0.00 0.00 0.00 53 1012.3
20190422002150 75 167 0.0 8.0 0.00 0.00 0.00 53 1012.2
20190422001645 75 171 0.0 13.0 0.00 0.00 0.00 53 1012.2
20190422001505 75 142 0.0 9.0 0.00 0.00 0.00 52 1012.3
20190422001128 76 134 0.0 13.0 0.00 0.00 0.00 52 1012.2
20190422000628 76 141 0.0 12.0 0.00 0.00 0.00 52 1012.2
20190422000107 76 149 1.0 12.0 0.00 0.00 0.00 52 1012.2
20190421235600 76 167 1.0 13.0 0.00 0.00 0.00 51 1012.3
20190421235056 77 178 0.0 6.0 0.00 0.00 0.00 50 1012.2
20190421234603 77 169 0.0 7.0 0.00 0.00 0.00 51 1012.4
20190421234503 77 159 0.0 8.0 0.00 0.00 0.00 50 1012.5
20190421234110 77 177 0.0 7.0 0.00 0.00 0.00 50 1012.5
20190421233556 77 120 0.0 7.0 0.00 0.00 0.00 49 1012.5
20190421233050 78 144 0.0 13.0 0.00 0.00 0.00 49 1012.5
20190421233011 77 198 1.0 8.0 0.00 0.00 0.00 49 1012.6
20190421232542 78 139 1.0 13.0 0.00 0.00 0.00 49 1012.5
20190421232040 78 130 2.0 13.0 0.00 0.00 0.00 48 1012.5
20190421231542 78 178 2.0 13.0 0.00 0.00 0.00 48 1012.5
20190421231028 78 157 1.0 12.0 0.00 0.00 0.00 49 1012.5
20190421230520 78 140 1.0 12.0 0.00 0.00 0.00 47 1012.5
20190421230013 78 159 1.0 12.0 0.00 0.00 0.00 49 1012.6
20190421230005 78 189 0.0 13.0 0.00 0.00 0.00 49 1012.7
20190421225520 78 170 1.0 12.0 0.00 0.00 0.00 48 1012.7
20190421225004 78 132 2.0 15.0 0.00 0.00 0.00 47 1012.5
20190421224505 78 0 3.0 15.0 0.00 0.00 0.00 47 1012.6
20190421223953 79 145 2.0 16.0 0.00 0.00 0.00 46 1012.5
20190421223450 79 206 1.0 16.0 0.00 0.00 0.00 48 1012.5
20190421222940 79 151 1.0 16.0 0.00 0.00 0.00 49 1012.6
20190421222433 79 140 1.0 16.0 0.00 0.00 0.00 48 1012.5
20190421221921 78 167 2.0 14.0 0.00 0.00 0.00 48 1012.6
20190421221508 78 150 1.0 17.0 0.00 0.00 0.00 47 1012.5
20190421221408 79 110 2.0 14.0 0.00 0.00 0.00 47 1012.4
20190421220907 79 112 1.0 10.0 0.00 0.00 0.00 48 1012.5
20190421220357 79 101 2.0 12.0 0.00 0.00 0.00 47 1012.5
20190421215846 79 142 2.0 12.0 0.00 0.00 0.00 48 1012.6
20190421215351 79 131 1.0 12.0 0.00 0.00 0.00 47 1012.6
20190421214838 79 183 1.0 12.0 0.00 0.00 0.00 47 1012.6
20190421214505 78 154 0.0 12.0 0.00 0.00 0.00 49 1012.7
20190421214340 78 174 2.0 12.0 0.00 0.00 0.00 49 1012.6
20190421213821 78 107 2.0 12.0 0.00 0.00 0.00 47 1012.5
20190421213325 79 173 1.0 9.0 0.00 0.00 0.00 48 1012.6
20190421213003 78 188 0.0 13.0 0.00 0.00 0.00 50 1012.7
20190421212810 79 194 1.0 13.0 0.00 0.00 0.00 48 1012.6
20190421212319 79 180 2.0 13.0 0.00 0.00 0.00 48 1012.6
20190421211820 79 119 2.0 13.0 0.00 0.00 0.00 47 1012.6
20190421211302 79 136 1.0 10.0 0.00 0.00 0.00 50 1012.6
20190421210748 79 121 1.0 10.0 0.00 0.00 0.00 50 1012.7
20190421210239 79 153 1.0 9.0 0.00 0.00 0.00 49 1012.7
20190421210008 78 150 3.0 12.0 0.00 0.00 0.00 49 1012.8
20190421205741 79 136 1.0 12.0 0.00 0.00 0.00 49 1012.7
20190421205251 78 163 1.0 12.0 0.00 0.00 0.00 49 1012.9
20190421204741 78 169 1.0 13.0 0.00 0.00 0.00 51 1012.9
20190421204224 78 181 1.0 13.0 0.00 0.00 0.00 50 1013.0
20190421203704 78 185 1.0 13.0 0.00 0.00 0.00 53 1013.1
20190421203208 78 117 1.0 13.0 0.00 0.00 0.00 51 1013.1
20190421202716 78 159 1.0 10.0 0.00 0.00 0.00 51 1013.2
20190421202202 78 169 1.0 10.0 0.00 0.00 0.00 51 1013.3
20190421201706 78 170 1.0 10.0 0.00 0.00 0.00 51 1013.3
20190421201506 78 136 1.0 9.0 0.00 0.00 0.00 53 1013.5
20190421201157 78 101 0.0 7.0 0.00 0.00 0.00 54 1013.5
20190421200657 78 173 0.0 7.0 0.00 0.00 0.00 51 1013.6
20190421200205 78 123 0.0 8.0 0.00 0.00 0.00 54 1013.6
20190421200026 77 175 0.0 10.0 0.00 0.00 0.00 53 1013.7
20190421195657 78 81 1.0 16.0 0.00 0.00 0.00 53 1013.7
20190421195155 78 111 1.0 16.0 0.00 0.00 0.00 55 1013.7
20190421194654 78 174 1.0 16.0 0.00 0.00 0.00 54 1013.7
20190421194150 78 138 1.0 16.0 0.00 0.00 0.00 55 1013.8
20190421193655 78 161 0.0 11.0 0.00 0.00 0.00 55 1013.9
20190421193202 78 163 0.0 11.0 0.00 0.00 0.00 57 1013.9
20190421192653 78 134 0.0 11.0 0.00 0.00 0.00 53 1014.0
20190421192137 78 128 0.0 11.0 0.00 0.00 0.00 57 1014.1
20190421191647 78 154 0.0 6.0 0.00 0.00 0.00 57 1014.2
20190421191525 77 137 0.0 10.0 0.00 0.00 0.00 58 1014.3
20190421191147 78 157 0.0 7.0 0.00 0.00 0.00 56 1014.2
20190421190639 78 120 0.0 1.0 0.00 0.00 0.00 58 1014.2
20190421190144 77 160 1.0 9.0 0.00 0.00 0.00 55 1014.3
20190421185624 77 181 1.0 9.0 0.00 0.00 0.00 57 1014.5
20190421185132 77 141 0.0 6.0 0.00 0.00 0.00 58 1014.5
20190421184625 77 144 0.0 9.0 0.00 0.00 0.00 58 1014.5
20190421184521 77 122 1.0 9.0 0.00 0.00 0.00 57 1014.5
20190421184107 77 157 2.0 8.0 0.00 0.00 0.00 54 1014.4
20190421183616 77 81 2.0 15.0 0.00 0.00 0.00 53 1014.4
20190421183113 77 119 1.0 15.0 0.00 0.00 0.00 53 1014.3
20190421183014 76 122 5.0 15.0 0.00 0.00 0.00 51 1014.4
20190421182602 77 198 1.0 13.0 0.00 0.00 0.00 53 1014.4
20190421182047 77 143 3.0 13.0 0.00 0.00 0.00 55 1014.5
20190421181531 76 179 3.0 13.0 0.00 0.00 0.00 55 1014.5
20190421181015 76 121 3.0 13.0 0.00 0.00 0.00 55 1014.6
20190421180456 76 173 2.0 13.0 0.00 0.00 0.00 54 1014.7
20190421180004 75 132 4.0 15.0 0.00 0.00 0.00 55 1014.8
20190421175941 76 122 3.0 15.0 0.00 0.00 0.00 55 1014.7
20190421175435 75 202 3.0 15.0 0.00 0.00 0.00 56 1014.9
20190421174938 75 183 2.0 15.0 0.00 0.00 0.00 55 1015.0
20190421174447 75 181 2.0 15.0 0.00 0.00 0.00 55 1015.2
20190421173954 75 150 2.0 10.0 0.00 0.00 0.00 58 1015.3
20190421173448 75 140 1.0 11.0 0.00 0.00 0.00 56 1015.3
20190421173003 74 126 1.0 11.0 0.00 0.00 0.00 57 1015.2
20190421172929 75 140 1.0 11.0 0.00 0.00 0.00 59 1015.2
20190421172419 75 167 1.0 11.0 0.00 0.00 0.00 58 1015.3
20190421171930 75 145 1.0 11.0 0.00 0.00 0.00 58 1015.4
20190421171417 74 119 1.0 10.0 0.00 0.00 0.00 61 1015.4
20190421170925 74 187 0.0 9.0 0.00 0.00 0.00 59 1015.4
20190421170422 74 140 1.0 0.0 0.00 0.00 0.00 61 1015.5
20190421170007 73 123 1.0 7.0 0.00 0.00 0.00 60 1015.6
20190421165928 74 159 1.0 8.0 0.00 0.00 0.00 62 1015.6
20190421165436 73 143 0.0 11.0 0.00 0.00 0.00 62 1015.6
20190421164943 73 157 1.0 11.0 0.00 0.00 0.00 60 1015.6
20190421164453 73 167 2.0 12.0 0.00 0.00 0.00 60 1015.5
20190421164002 73 156 2.0 12.0 0.00 0.00 0.00 63 1015.6
20190421163459 73 190 1.0 12.0 0.00 0.00 0.00 61 1015.5
20190421163009 73 152 0.0 12.0 0.00 0.00 0.00 62 1015.5
20190421162504 72 200 1.0 8.0 0.00 0.00 0.00 64 1015.5
20190421161950 72 182 1.0 10.0 0.00 0.00 0.00 63 1015.5
20190421161519 72 158 2.0 10.0 0.00 0.00 0.00 61 1015.5
20190421161436 72 165 0.0 9.0 0.00 0.00 0.00 61 1015.5
20190421160928 72 111 0.0 3.0 0.00 0.00 0.00 66 1015.5
20190421160426 72 126 0.0 7.0 0.00 0.00 0.00 66 1015.5
20190421155933 71 148 0.0 9.0 0.00 0.00 0.00 66 1015.5
20190421155439 71 146 0.0 9.0 0.00 0.00 0.00 66 1015.5
20190421154932 70 186 0.0 9.0 0.00 0.00 0.00 67 1015.5
20190421154511 70 149 2.0 10.0 0.00 0.00 0.00 68 1015.6
20190421154417 70 157 0.0 8.0 0.00 0.00 0.00 67 1015.6
20190421153904 70 159 0.0 7.0 0.00 0.00 0.00 68 1015.6
20190421153400 69 271 1.0 2.0 0.00 0.00 0.00 69 1015.6
20190421153020 69 148 1.0 11.0 0.00 0.00 0.00 69 1015.6
20190421152844 69 168 1.0 9.0 0.00 0.00 0.00 69 1015.5
20190421152335 69 135 1.0 9.0 0.00 0.00 0.00 68 1015.4
20190421151832 69 265 0.0 9.0 0.00 0.00 0.00 69 1015.5
20190421151328 69 301 0.0 9.0 0.00 0.00 0.00 70 1015.5
20190421150812 68 163 0.0 9.0 0.00 0.00 0.00 70 1015.4
20190421150253 68 180 0.0 6.0 0.00 0.00 0.00 71 1015.4
20190421150004 67 165 0.0 9.0 0.00 0.00 0.00 72 1015.4
20190421145743 68 300 0.0 10.0 0.00 0.00 0.00 71 1015.4